Regional Weather Roundup
Issued by NWS

Home | Current Version | Previous Version | Text Only | Print | Product List | Glossary On
Versions: 1 2 3 4 5 6 7 8 9 10 11 12 13 14 15 16 17 18 19 20 21 22 23 24 25 26 27 28 29 30 31 32 33 34 35 36 37 38 39 40 41 42 43 44 45 46 47 48 49 50
000
ASUS44 KLUB 251310
RWRTX
WEST TEXAS WEATHER ROUNDUP
NATIONAL WEATHER SERVICE LUBBOCK TX
700 AM CST SUN JAN 25 2015

NOTE: "FAIR" INDICATES FEW OR NO CLOUDS BELOW 12,000 FEET WITH NO
SIGNIFICANT WEATHER AND/OR OBSTRUCTIONS TO VISIBILITY.

TXZ004-006>008-010-012-014-016-OKZ002-251400-
TEXAS PANHANDLE/OKLAHOMA PANHANDLE

CITY           SKY/WX    TMP DP  RH WIND       PRES   REMARKS
AMARILLO       CLEAR     37  24  59 NW12      30.17R WCI  29
BORGER         CLEAR     39  27  62 W13       30.15R WCI  31
CANADIAN       CLEAR     42  29  61 W14       30.10R
DALHART        PTCLDY    30  23  75 W10       30.18R WCI  21
DUMAS          PTCLDY    32  25  74 NW13      30.16S WCI  22
GUYMON         CLEAR     33  26  75 W9        30.11R WCI  25
HEREFORD       CLEAR     30  26  86 N12       30.18R WCI  20
PAMPA          CLEAR     32  26  80 NW12      30.13R WCI  23
PERRYTON         N/A     35  28  74 W9        30.10R WCI  28
$$

TXZ026-029-035-045-048-251400-
SOUTHERN PANHANDLE/SOUTH PLAINS/ROLLING PLAINS

CITY           SKY/WX    TMP DP  RH WIND       PRES   REMARKS
CHILDRESS      CLEAR     36  29  75 NW8       30.12R WCI  30
SEMINOLE       PTCLDY    38  28  68 N8        30.18R WCI  32
LUBBOCK        PTCLDY    32  28  85 NW9       30.14R WCI  24
PLAINVIEW      CLEAR     37  28  70 N16G23    30.13R WCI  28
SNYDER         MOCLDY   N/A N/A N/A N9        30.12R
$$

TXZ052-054-060>062-072-078-127-140-154-169-251400-
PERMIAN BASIN/CONCHO VALLEY/BIG COUNTRY/EDWARDS PLATEAU

CITY           SKY/WX    TMP DP  RH WIND       PRES   REMARKS
ABILENE        PTCLDY    40  31  70 NW9       30.09R WCI  34
BIG SPRING     PTCLDY    33  28  80 CALM      30.17R
BRADY          CLEAR     43  32  65 NW10      30.06R
BROWNWOOD      CLEAR     37  32  81 N7        30.06R WCI  32
JUNCTION       CLEAR     34  30  85 W6        30.08R WCI  29
MIDLAND        CLEAR     36  29  75 N9        30.15R WCI  29
ODESSA         CLEAR     35  27  72 N8        30.16R WCI  29
SAN ANGELO     CLEAR     37  32  82 W9        30.10R WCI  30
SONORA         CLEAR     28  28 100 CALM      30.14R
SWEETWATER     MOCLDY    43  31  62 W5        30.14R
WINK           CLEAR     32  24  72 N10       30.15R WCI  24
$$

TXZ055-058-074-075-080-082-251400-
FAR WEST/SOUTHWEST MOUNTAINS/TRANS PECOS

CITY           SKY/WX    TMP DP  RH WIND       PRES   REMARKS
ALPINE         PTCLDY    38  14  37 SW9       30.21R WCI  32
DRYDEN           N/A     46  24  42 W12       30.11R
EL PASO        PTCLDY    31  25  78 NE5       30.19F WCI  26
FORT STOCKTON  PTCLDY    34  26  72 NW9       30.17R WCI  27
MARFA          PTCLDY    27  19  74 NE3       30.18R
PECOS          CLEAR     32  26  78 W8        30.18R WCI  25
PRESIDIO       FAIR      39  33  77 N5        30.19S
$$

TXZ014-016-019-021>030-083-251400
TEXAS TECH WEST TEXAS MESONET/TEXAS PANHANDLE/NORTHERN SOUTH PLAINS

CITY           SKY/WX    TMP DP  RH WIND       PRES   REMARKS
ABERNATHY 5ENE   N/A     34  29  82 NW9       30.15R WCI  27
AMARILLO 9NNE    N/A     34  25  71 W6        30.17S WCI  28
AMARILLO 7SSE    N/A     35  24  63 N13       30.18R WCI  27
AMHERST 1NE      N/A     32  27  84 NW9       30.16R WCI  24
BOOTLEG 11WNW    N/A     31  23  73 N9        30.21R WCI  23
CANADIAN 6E      N/A     37  28  70 W8        30.08R WCI  30
CAPROCK CYN SP   N/A     48  21  34 NW13      30.14R
CHILDRESS 2NNE   N/A     37  29  75 W8        30.10R WCI  30
CLARENDON 2WSW   N/A     37  26  67 W10       30.14R WCI  29
CLAUDE 12SW      N/A     38  24  58 NW16      30.15R WCI  29
DIMMITT 2NE      N/A     32  26  77 N16       30.16R WCI  21
FLOYDADA 2NNE    N/A     35  28  76 N10       30.12R WCI  27
FRIONA 2NE       N/A     30  25  83 NW6       30.19R WCI  24
GOODLETT 3W      N/A     40  31  68 NW14      30.09R WCI  33
HART 3N          N/A     36  27  69 N17       30.15R WCI  26
HEREFORD 2NW     N/A     32  25  75 N10       30.18R WCI  24
MCLEAN 1E        N/A     36  27  70 NW14      30.10R WCI  27
MEMPHIS 1NE      N/A     45  27  49 NW13      30.12R
MULESHOE 2SSW    N/A     34  28  77 N7        30.17S WCI  28
OLTON 6S         N/A     34  27  76 N12       30.15R WCI  25
PALO DURO SP     N/A     42  23  46 N16       30.17R
PAMPA 2E         N/A     37  27  69 W13       30.12R WCI  28
PLAINVIEW 1S     N/A     39  28  65 N12       30.13S WCI  31
SILVERTON 7ESE   N/A     40  26  56 N16       30.14R WCI  32
TULIA 2ENE       N/A     32  27  81 NW10      30.16R WCI  24
TURKEY 2WSW      N/A     43  28  53 NW16      30.12R
UMBARGER 3NNE    N/A     31  22  68 NW5       30.18R WCI  27
$$

TXZ033>036-039>041-045>048-251400
TEXAS TECH WEST TEXAS MESONET/SOUTH PLAINS

CITY           SKY/WX    TMP DP  RH WIND       PRES   REMARKS
AIKEN 3WSW       N/A     33  28  80 N12       30.15R WCI  25
ANDREWS 2NE      N/A     35  28  74 NW7       30.18R WCI  29
ANTON 6SSW       N/A     31  28  91 W9        30.16R WCI  23
BROWNFIELD 2S    N/A     36  29  73 N10       30.17R WCI  29
DENVR CTY 7WNW   N/A     32  26  80 N9        30.18R WCI  24
GAIL 2ESE        N/A     37  30  75 NW9       30.13R WCI  30
LAMESA 2SE       N/A     37  30  74 N10       30.16R WCI  30
LEVELLAND 4S     N/A     31  25  80 NW6       30.17R WCI  25
LUBBOCK 3WNW     N/A     33  28  83 NW5       30.16R WCI  29
MORTON 1ENE      N/A     29  26  88 NW8       30.18R WCI  22
ODONNELL 1N      N/A     34  28  79 NW9       30.15R WCI  27
PLAINS 3N        N/A     31  26  84 N8        30.19R WCI  23
RALLS 1SE        N/A     37  28  71 N10       30.14R WCI  30
REESE CENTER     N/A     33  29  83 NW10      30.16R WCI  25
SEAGRAVES 1SW    N/A     31  27  86 NW6       30.17R WCI  25
SEMINOLE 2NNE    N/A     34  28  76 NW8       30.17R WCI  28
SLATON 2NE       N/A     37  29  72 NW8       30.14R WCI  31
SNYDER 3E        N/A     38  31  74 N12       30.11R WCI  31
SUNDOWN 8SW      N/A     30  26  84 NW8       30.17R WCI  22
TAHOKA 3NNE      N/A     32  28  83 NW8       30.15R WCI  25
WOLFFORTH 6SSW   N/A     35  33  92 NW10      30.16R WCI  27
$$

TXZ031-032-036>038-042>044-251400-
TEXAS TECH WEST TEXAS MESONET/ROLLING PLAINS

CITY           SKY/WX    TMP DP  RH WIND       PRES   REMARKS
ASPERMONT 3NE    N/A     36  30  78 W5        30.11R WCI  32
FLUVANNA 3WNW    N/A     37  30  77 N9        30.13R WCI  30
GRAHAM 5SSW      N/A     36  29  75 NW16      30.13R WCI  26
GUTHRIE 10WSW    N/A     48  28  46 N17       30.08R
HASKELL 1NW      N/A     39  32  76 NW12      30.08R WCI  32
JAYTON 1SSE      N/A     33  29  87 W5        30.12R WCI  28
KNOX CITY 3NW    N/A     43  31  62 NW7       30.10R
LK A HENRY 1NW   N/A     33  28  83 W5        30.14R WCI  28
NORTHFIELD 1S    N/A     41  31  67 NW9       30.12R
ODELL 4ENE       N/A     43  33  66 NW14      30.08R
PADUCAH 10SW     N/A     43  29  58 NW15      30.10R
POST 1NE         N/A     41  29  61 NW12      30.13R
RRING SPRGS 3N   N/A     44  28  52 N16       30.11R
SEYMOUR 3NW      N/A     43  33  68 NW10      30.06R
SPUR 1W          N/A     46  27  49 N9        30.10R
WEINERT 2NNE     N/A     39  32  75 NW7       30.10R WCI  34
WHITE RVR 6NE    N/A     41  28  58 NW18      30.10R
$$

TXZ052-054-060>062-072-078-127-140-154-169-251400-
TEXAS TECH WEST TEXAS MESONET/PERMIAN BASIN/
CONCHO VALLEY/BIG COUNTRY/EDWARDS PLATEAU

CITY           SKY/WX    TMP DP  RH WIND       PRES   REMARKS
COYANOSA 2N      N/A     35  26  69 W7        30.18R WCI  29
JUNCTION 1SSW    N/A     30  28  94 S2        30.11R
MERTZON 3NNE     N/A     39  29  68 NW5       30.13R
SAN ANGELO 7NW   N/A     37  29  74 W7        30.11R WCI  31
STRLNG CT 4WSW   N/A     36  28  74 W3        30.14R
ST LAWRNCE 5SW   N/A     34  29  80 NW8       30.14R WCI  27
SWEETWATR 11SW   N/A     39  30  69 NW1       30.13R
WALL 1E          N/A     35  30  82 SW6       30.11R WCI  30
$$

TXZ055-058-074-075-080-082-251400-
TEXAS TECH WEST TEXAS MESONET/FAR WEST/SOUTHWEST MOUNTAINS/TRANS PECOS

CITY           SKY/WX    TMP DP  RH WIND       PRES   REMARKS
PRSMN GAP BBNP   N/A     41  30  63 S8        30.17R
GUADLPE MTN NP   N/A     43   9  24 NE2       30.20R
$$



USA.gov is the U.S. government's official web portal to all federal, state and local government web resources and services.